Time,TemperatureF,DewpointF,PressureIn,WindDirection,WindDirectionDegrees,WindSpeedMPH,WindSpeedGustMPH,Humidity,HourlyPrecipIn,Conditions,Clouds,dailyrainin,SoftwareType,DateUTC
2013-04-29 00:01:00,50.0,36.0,27.88,WNW,292,0.0,0.0,58,0.00,,,0.00,Rainwise IP-100,2013-04-29 04:01:00,
2013-04-29 00:06:00,50.0,36.0,27.88,WNW,292,0.0,0.0,58,0.00,,,0.00,Rainwise IP-100,2013-04-29 04:06:00,
2013-04-29 00:08:00,50.0,36.0,27.88,WNW,292,0.0,0.0,58,0.00,,,0.00,Rainwise IP-100,2013-04-29 04:08:00,
2013-04-29 00:09:00,50.0,36.0,27.88,WNW,292,0.0,0.0,58,0.00,,,0.00,Rainwise IP-100,2013-04-29 04:09:00,
2013-04-29 00:11:00,50.0,36.0,27.88,WNW,292,0.0,0.0,57,0.00,,,0.00,Rainwise IP-100,2013-04-29 04:11:00,
2013-04-29 00:14:00,50.0,36.0,27.88,WNW,292,0.0,0.0,57,0.00,,,0.01,Rainwise IP-100,2013-04-29 04:14:00,
2013-04-29 00:19:00,50.0,36.0,27.88,WNW,292,0.0,0.0,58,0.06,,,0.01,Rainwise IP-100,2013-04-29 04:19:00,
2013-04-29 00:24:00,50.0,36.0,27.90,WNW,292,0.0,0.0,57,0.06,,,0.01,Rainwise IP-100,2013-04-29 04:24:00,
2013-04-29 00:29:00,50.0,36.0,27.90,WNW,292,0.0,0.0,58,0.06,,,0.02,Rainwise IP-100,2013-04-29 04:29:00,
2013-04-29 00:34:00,50.0,35.0,27.89,WNW,292,0.0,0.0,55,0.06,,,0.02,Rainwise IP-100,2013-04-29 04:34:00,
2013-04-29 00:39:00,50.0,35.0,27.89,WNW,292,0.0,0.0,55,0.06,,,0.03,Rainwise IP-100,2013-04-29 04:39:00,
2013-04-29 00:44:00,50.0,35.0,27.88,WNW,292,0.0,0.0,56,0.06,,,0.03,Rainwise IP-100,2013-04-29 04:44:00,
2013-04-29 00:49:00,50.0,36.0,27.88,WNW,292,0.0,0.0,57,0.00,,,0.03,Rainwise IP-100,2013-04-29 04:49:00,
2013-04-29 00:54:00,50.0,35.0,27.89,WNW,292,0.0,0.0,55,0.00,,,0.03,Rainwise IP-100,2013-04-29 04:54:00,
2013-04-29 00:59:00,50.0,33.0,27.89,WNW,292,0.0,0.0,54,0.00,,,0.03,Rainwise IP-100,2013-04-29 04:59:00,
2013-04-29 01:04:00,50.0,33.0,27.89,WNW,292,0.0,0.0,53,0.06,,,0.04,Rainwise IP-100,2013-04-29 05:04:00,
2013-04-29 01:09:00,50.0,33.0,27.89,WNW,292,0.0,0.0,53,0.06,,,0.04,Rainwise IP-100,2013-04-29 05:09:00,
2013-04-29 01:14:00,50.0,33.0,27.89,WNW,292,0.0,0.0,52,0.00,,,0.04,Rainwise IP-100,2013-04-29 05:14:00,
2013-04-29 01:19:00,50.0,32.0,27.89,WNW,292,0.0,0.0,50,0.00,,,0.04,Rainwise IP-100,2013-04-29 05:19:00,
2013-04-29 01:24:00,50.0,32.0,27.88,WNW,292,0.0,0.0,50,0.00,,,0.04,Rainwise IP-100,2013-04-29 05:24:00,
2013-04-29 01:29:00,50.0,32.0,27.88,WNW,292,0.0,0.0,50,0.06,,,0.05,Rainwise IP-100,2013-04-29 05:29:00,
2013-04-29 01:34:00,50.0,32.0,27.89,WNW,292,0.0,0.0,50,0.06,,,0.05,Rainwise IP-100,2013-04-29 05:34:00,
2013-04-29 01:39:00,50.0,32.0,27.89,WNW,292,0.0,0.0,51,0.00,,,0.05,Rainwise IP-100,2013-04-29 05:39:00,
2013-04-29 01:44:00,50.0,32.0,27.89,WNW,292,0.0,0.0,50,0.00,,,0.05,Rainwise IP-100,2013-04-29 05:44:00,
2013-04-29 01:49:00,50.0,32.0,27.89,WNW,292,0.0,0.0,49,0.00,,,0.05,Rainwise IP-100,2013-04-29 05:49:00,
2013-04-29 01:54:00,50.0,31.0,27.88,WNW,292,0.0,0.0,48,0.00,,,0.05,Rainwise IP-100,2013-04-29 05:54:00,
2013-04-29 01:59:00,50.0,32.0,27.88,WNW,292,0.0,0.0,49,0.00,,,0.05,Rainwise IP-100,2013-04-29 05:59:00,
2013-04-29 02:04:00,50.0,32.0,27.88,WNW,292,0.0,1.0,51,0.00,,,0.05,Rainwise IP-100,2013-04-29 06:04:00,
2013-04-29 02:09:00,50.0,32.0,27.88,WNW,292,0.0,0.0,50,0.00,,,0.05,Rainwise IP-100,2013-04-29 06:09:00,
2013-04-29 02:14:00,50.0,31.0,27.88,WNW,292,0.0,0.0,48,0.00,,,0.05,Rainwise IP-100,2013-04-29 06:14:00,
2013-04-29 02:19:00,50.0,32.0,27.88,WNW,292,0.0,0.0,49,0.00,,,0.05,Rainwise IP-100,2013-04-29 06:19:00,
2013-04-29 02:24:00,50.0,32.0,27.87,WNW,292,0.0,0.0,50,0.00,,,0.05,Rainwise IP-100,2013-04-29 06:24:00,
2013-04-29 02:29:00,50.0,32.0,27.87,WNW,292,0.0,0.0,50,0.06,,,0.06,Rainwise IP-100,2013-04-29 06:29:00,
2013-04-29 02:34:00,50.0,31.0,27.87,WNW,292,0.0,0.0,47,0.06,,,0.06,Rainwise IP-100,2013-04-29 06:34:00,
2013-04-29 02:39:00,50.0,31.0,27.87,WNW,292,0.0,0.0,48,0.00,,,0.06,Rainwise IP-100,2013-04-29 06:39:00,
2013-04-29 02:44:00,50.0,31.0,27.87,WNW,292,0.0,0.0,48,0.00,,,0.06,Rainwise IP-100,2013-04-29 06:44:00,
2013-04-29 02:49:00,50.0,31.0,27.87,WNW,292,0.0,0.0,47,0.00,,,0.06,Rainwise IP-100,2013-04-29 06:49:00,
2013-04-29 02:54:00,50.0,29.0,27.86,WNW,292,0.0,0.0,44,0.00,,,0.06,Rainwise IP-100,2013-04-29 06:54:00,
2013-04-29 02:59:00,50.0,29.0,27.86,WNW,292,0.0,0.0,44,0.00,,,0.06,Rainwise IP-100,2013-04-29 06:59:00,
2013-04-29 03:04:00,50.0,29.0,27.85,WNW,292,0.0,0.0,44,0.00,,,0.06,Rainwise IP-100,2013-04-29 07:04:00,
2013-04-29 03:09:00,50.0,28.0,27.85,WNW,292,0.0,0.0,43,0.00,,,0.06,Rainwise IP-100,2013-04-29 07:09:00,
2013-04-29 03:14:00,50.0,28.0,27.85,WNW,292,0.0,0.0,43,0.00,,,0.06,Rainwise IP-100,2013-04-29 07:14:00,
2013-04-29 03:19:00,50.0,28.0,27.85,WNW,292,0.0,0.0,43,0.00,,,0.06,Rainwise IP-100,2013-04-29 07:19:00,
2013-04-29 03:24:00,50.0,28.0,27.84,WNW,292,0.0,0.0,42,0.00,,,0.06,Rainwise IP-100,2013-04-29 07:24:00,
2013-04-29 03:29:00,50.0,28.0,27.84,WNW,292,0.0,0.0,42,0.00,,,0.06,Rainwise IP-100,2013-04-29 07:29:00,
2013-04-29 03:34:00,50.0,28.0,27.84,WNW,292,0.0,0.0,42,0.00,,,0.06,Rainwise IP-100,2013-04-29 07:34:00,
2013-04-29 03:39:00,50.0,28.0,27.84,WNW,292,0.0,0.0,41,0.00,,,0.06,Rainwise IP-100,2013-04-29 07:39:00,
2013-04-29 03:44:00,50.0,28.0,27.85,WNW,292,0.0,0.0,42,0.00,,,0.06,Rainwise IP-100,2013-04-29 07:44:00,
2013-04-29 03:49:00,50.0,31.0,27.85,WNW,292,0.0,0.0,46,0.00,,,0.06,Rainwise IP-100,2013-04-29 07:49:00,
2013-04-29 03:54:00,50.0,31.0,27.86,WNW,292,0.0,0.0,47,0.00,,,0.06,Rainwise IP-100,2013-04-29 07:54:00,
2013-04-29 03:59:00,50.0,31.0,27.86,WNW,292,0.0,0.0,48,0.00,,,0.06,Rainwise IP-100,2013-04-29 07:59:00,
2013-04-29 04:04:00,50.0,31.0,27.85,WNW,292,0.0,0.0,48,0.00,,,0.06,Rainwise IP-100,2013-04-29 08:04:00,
2013-04-29 04:09:00,50.0,31.0,27.85,WNW,292,0.0,0.0,47,0.00,,,0.06,Rainwise IP-100,2013-04-29 08:09:00,
2013-04-29 04:14:00,50.0,29.0,27.85,WNW,292,0.0,0.0,45,0.00,,,0.06,Rainwise IP-100,2013-04-29 08:14:00,
2013-04-29 04:19:00,50.0,29.0,27.85,WNW,292,0.0,0.0,44,0.00,,,0.06,Rainwise IP-100,2013-04-29 08:19:00,
2013-04-29 04:24:00,50.0,28.0,27.85,WNW,292,0.0,0.0,43,0.00,,,0.06,Rainwise IP-100,2013-04-29 08:24:00,
2013-04-29 04:29:00,50.0,28.0,27.85,WNW,292,0.0,0.0,43,0.00,,,0.06,Rainwise IP-100,2013-04-29 08:29:00,
2013-04-29 04:34:00,50.0,28.0,27.85,WNW,292,0.0,0.0,43,0.00,,,0.06,Rainwise IP-100,2013-04-29 08:34:00,
2013-04-29 04:39:00,50.0,28.0,27.85,WNW,292,0.0,0.0,43,0.00,,,0.06,Rainwise IP-100,2013-04-29 08:39:00,
2013-04-29 04:44:00,50.0,28.0,27.85,WNW,292,0.0,0.0,41,0.00,,,0.06,Rainwise IP-100,2013-04-29 08:44:00,
2013-04-29 04:49:00,50.0,26.0,27.85,WNW,292,0.0,0.0,39,0.00,,,0.06,Rainwise IP-100,2013-04-29 08:49:00,
2013-04-29 04:54:00,50.0,26.0,27.85,WNW,292,0.0,0.0,40,0.00,,,0.06,Rainwise IP-100,2013-04-29 08:54:00,
2013-04-29 04:59:00,50.0,26.0,27.85,WNW,292,0.0,0.0,40,0.00,,,0.06,Rainwise IP-100,2013-04-29 08:59:00,
2013-04-29 05:04:00,50.0,26.0,27.84,WNW,292,0.0,0.0,38,0.00,,,0.06,Rainwise IP-100,2013-04-29 09:04:00,
2013-04-29 05:09:00,50.0,24.0,27.84,WNW,292,0.0,0.0,37,0.00,,,0.06,Rainwise IP-100,2013-04-29 09:09:00,
2013-04-29 05:14:00,50.0,24.0,27.84,WNW,292,0.0,0.0,36,0.00,,,0.06,Rainwise IP-100,2013-04-29 09:14:00,
2013-04-29 05:19:00,50.0,24.0,27.84,WNW,292,0.0,0.0,35,0.00,,,0.06,Rainwise IP-100,2013-04-29 09:19:00,
2013-04-29 05:24:00,50.0,23.0,27.84,WNW,292,0.0,0.0,34,0.00,,,0.06,Rainwise IP-100,2013-04-29 09:24:00,
2013-04-29 05:29:00,50.0,23.0,27.84,WNW,292,0.0,0.0,34,0.00,,,0.06,Rainwise IP-100,2013-04-29 09:29:00,
2013-04-29 05:34:00,50.0,23.0,27.83,WNW,292,0.0,0.0,34,0.00,,,0.06,Rainwise IP-100,2013-04-29 09:34:00,
2013-04-29 05:39:00,50.0,23.0,27.83,WNW,292,0.0,0.0,34,0.00,,,0.06,Rainwise IP-100,2013-04-29 09:39:00,
2013-04-29 05:44:00,50.0,23.0,27.83,WNW,292,0.0,0.0,34,0.00,,,0.06,Rainwise IP-100,2013-04-29 09:44:00,
2013-04-29 05:49:00,50.0,23.0,27.83,WNW,292,0.0,0.0,34,0.00,,,0.06,Rainwise IP-100,2013-04-29 09:49:00,
2013-04-29 05:54:00,50.0,23.0,27.84,WNW,292,0.0,0.0,33,0.06,,,0.07,Rainwise IP-100,2013-04-29 09:54:00,
2013-04-29 05:59:00,50.0,23.0,27.84,WNW,292,0.0,0.0,34,0.06,,,0.07,Rainwise IP-100,2013-04-29 09:59:00,
2013-04-29 06:04:00,50.0,23.0,27.84,WNW,292,0.0,0.0,34,0.00,,,0.07,Rainwise IP-100,2013-04-29 10:04:00,
2013-04-29 06:09:00,50.0,24.0,27.84,WNW,292,0.0,0.0,37,0.00,,,0.07,Rainwise IP-100,2013-04-29 10:09:00,
2013-04-29 06:14:00,50.0,24.0,27.85,WNW,292,0.0,0.0,35,0.00,,,0.07,Rainwise IP-100,2013-04-29 10:14:00,
2013-04-29 06:19:00,50.0,23.0,27.85,WNW,292,0.0,0.0,33,0.00,,,0.07,Rainwise IP-100,2013-04-29 10:19:00,
2013-04-29 06:24:00,50.0,23.0,27.86,WNW,292,0.0,0.0,32,0.00,,,0.07,Rainwise IP-100,2013-04-29 10:24:00,
2013-04-29 06:29:00,50.0,21.0,27.86,WNW,292,0.0,0.0,31,0.00,,,0.07,Rainwise IP-100,2013-04-29 10:29:00,
2013-04-29 06:34:00,50.0,21.0,27.86,WNW,292,0.0,0.0,31,0.00,,,0.07,Rainwise IP-100,2013-04-29 10:34:00,
2013-04-29 06:39:00,50.0,21.0,27.86,WNW,292,0.0,0.0,31,0.00,,,0.07,Rainwise IP-100,2013-04-29 10:39:00,
2013-04-29 06:44:00,50.0,21.0,27.86,WNW,292,0.0,0.0,30,0.00,,,0.07,Rainwise IP-100,2013-04-29 10:44:00,
2013-04-29 06:49:00,50.0,21.0,27.86,WNW,292,0.0,0.0,30,0.00,,,0.07,Rainwise IP-100,2013-04-29 10:49:00,
2013-04-29 06:54:00,50.0,18.0,27.87,WNW,292,0.0,0.0,29,0.00,,,0.07,Rainwise IP-100,2013-04-29 10:54:00,
2013-04-29 06:59:00,50.0,18.0,27.87,WNW,292,0.0,0.0,29,0.00,,,0.07,Rainwise IP-100,2013-04-29 10:59:00,
2013-04-29 07:04:00,50.0,18.0,27.87,WNW,292,0.0,0.0,28,0.00,,,0.07,Rainwise IP-100,2013-04-29 11:04:00,
2013-04-29 07:09:00,50.0,18.0,27.87,WNW,292,0.0,0.0,27,0.00,,,0.07,Rainwise IP-100,2013-04-29 11:09:00,
2013-04-29 07:14:00,50.0,16.0,27.86,WNW,292,0.0,0.0,26,0.00,,,0.07,Rainwise IP-100,2013-04-29 11:14:00,
2013-04-29 07:19:00,50.0,18.0,27.86,WNW,292,0.0,0.0,27,0.00,,,0.07,Rainwise IP-100,2013-04-29 11:19:00,
2013-04-29 07:24:00,50.0,16.0,27.86,WNW,292,0.0,0.0,25,0.00,,,0.07,Rainwise IP-100,2013-04-29 11:24:00,
2013-04-29 07:29:00,50.0,16.0,27.86,WNW,292,0.0,0.0,25,0.00,,,0.07,Rainwise IP-100,2013-04-29 11:29:00,
2013-04-29 07:34:00,50.0,16.0,27.86,WNW,292,0.0,0.0,26,0.00,,,0.07,Rainwise IP-100,2013-04-29 11:34:00,
2013-04-29 07:39:00,50.0,18.0,27.86,SW,225,0.0,0.0,27,0.00,,,0.07,Rainwise IP-100,2013-04-29 11:39:00,
2013-04-29 07:44:00,50.0,18.0,27.86,SW,225,0.0,0.0,27,0.00,,,0.07,Rainwise IP-100,2013-04-29 11:44:00,
2013-04-29 07:49:00,50.0,16.0,27.86,SW,225,0.0,0.0,26,0.00,,,0.07,Rainwise IP-100,2013-04-29 11:49:00,
2013-04-29 07:54:00,50.0,16.0,27.86,SW,225,0.0,0.0,25,0.00,,,0.07,Rainwise IP-100,2013-04-29 11:54:00,
2013-04-29 07:59:00,50.0,18.0,27.86,SW,225,0.0,0.0,27,0.00,,,0.07,Rainwise IP-100,2013-04-29 11:59:00,
2013-04-29 08:04:00,51.0,18.0,27.86,SW,225,0.0,0.0,27,0.00,,,0.07,Rainwise IP-100,2013-04-29 12:04:00,
2013-04-29 08:09:00,51.0,21.0,27.86,SW,225,0.0,0.0,28,0.00,,,0.07,Rainwise IP-100,2013-04-29 12:09:00,
2013-04-29 08:14:00,51.0,18.0,27.86,SW,225,0.0,0.0,27,0.00,,,0.07,Rainwise IP-100,2013-04-29 12:14:00,
2013-04-29 08:19:00,52.0,21.0,27.86,SW,225,0.0,0.0,28,0.00,,,0.07,Rainwise IP-100,2013-04-29 12:19:00,
2013-04-29 08:24:00,52.0,21.0,27.86,SW,225,0.0,0.0,28,0.00,,,0.07,Rainwise IP-100,2013-04-29 12:24:00,
2013-04-29 08:29:00,52.0,21.0,27.86,SW,225,0.0,0.0,28,0.00,,,0.07,Rainwise IP-100,2013-04-29 12:29:00,
2013-04-29 08:34:00,53.0,21.0,27.86,SW,225,0.0,0.0,28,0.00,,,0.07,Rainwise IP-100,2013-04-29 12:34:00,
2013-04-29 08:39:00,53.0,21.0,27.86,SW,225,0.0,0.0,28,0.00,,,0.07,Rainwise IP-100,2013-04-29 12:39:00,
2013-04-29 08:44:00,54.0,21.0,27.86,South,180,0.0,0.0,25,0.00,,,0.07,Rainwise IP-100,2013-04-29 12:44:00,
2013-04-29 08:49:00,54.0,18.0,27.86,South,180,0.0,0.0,23,0.00,,,0.07,Rainwise IP-100,2013-04-29 12:49:00,
2013-04-29 08:54:00,54.0,14.0,27.86,South,180,0.0,0.0,19,0.00,,,0.07,Rainwise IP-100,2013-04-29 12:54:00,
2013-04-29 08:59:00,54.0,14.0,27.86,South,180,0.0,0.0,19,0.00,,,0.07,Rainwise IP-100,2013-04-29 12:59:00,
2013-04-29 09:04:00,55.0,16.0,27.86,South,180,0.0,0.0,21,0.00,,,0.07,Rainwise IP-100,2013-04-29 13:04:00,
2013-04-29 09:09:00,55.0,16.0,27.86,South,180,0.0,0.0,21,0.00,,,0.07,Rainwise IP-100,2013-04-29 13:09:00,
2013-04-29 09:14:00,55.0,14.0,27.86,South,180,0.0,0.0,19,0.00,,,0.07,Rainwise IP-100,2013-04-29 13:14:00,
2013-04-29 09:19:00,56.0,16.0,27.86,South,180,0.0,0.0,20,0.00,,,0.07,Rainwise IP-100,2013-04-29 13:19:00,
2013-04-29 09:24:00,56.0,14.0,27.87,SSE,157,0.0,2.0,17,0.00,,,0.07,Rainwise IP-100,2013-04-29 13:24:00,
2013-04-29 09:29:00,56.0,16.0,27.87,SE,135,0.0,0.0,19,0.00,,,0.07,Rainwise IP-100,2013-04-29 13:29:00,
2013-04-29 09:34:00,57.0,24.0,27.86,SE,135,0.0,0.0,27,0.00,,,0.07,Rainwise IP-100,2013-04-29 13:34:00,
2013-04-29 09:39:00,58.0,-6.0,27.86,SSE,157,0.0,0.0,7,0.00,,,0.07,Rainwise IP-100,2013-04-29 13:39:00,
2013-04-29 09:44:00,59.0,0.0,27.86,SSW,202,0.0,0.0,8,0.00,,,0.07,Rainwise IP-100,2013-04-29 13:44:00,
2013-04-29 09:49:00,61.0,-6.0,27.86,SSW,202,0.0,3.0,5,0.00,,,0.07,Rainwise IP-100,2013-04-29 13:49:00,
2013-04-29 09:54:00,61.0,32.0,27.86,SSW,202,3.0,4.0,34,0.00,,,0.07,Rainwise IP-100,2013-04-29 13:54:00,
2013-04-29 09:59:00,61.0,-13.0,27.86,SSW,202,4.0,4.0,3,0.00,,,0.07,Rainwise IP-100,2013-04-29 13:59:00,
2013-04-29 10:04:00,61.0,61.0,27.86,West,270,0.0,4.0,100,0.00,,,0.07,Rainwise IP-100,2013-04-29 14:04:00,
2013-04-29 10:09:00,61.0,61.0,27.86,West,270,0.0,0.0,100,0.00,,,0.07,Rainwise IP-100,2013-04-29 14:09:00,
2013-04-29 10:14:00,61.0,53.5,27.86,NW,315,0.0,3.0,76,0.00,,,0.07,Rainwise IP-100,2013-04-29 14:14:00,
2013-04-29 10:19:00,62.0,44.0,27.86,ESE,112,2.0,4.0,51,0.00,,,0.07,Rainwise IP-100,2013-04-29 14:19:00,
2013-04-29 10:24:00,62.0,35.0,27.86,West,270,0.0,3.0,35,0.00,,,0.07,Rainwise IP-100,2013-04-29 14:24:00,
2013-04-29 10:29:00,64.0,-23.0,27.86,SSW,202,3.0,4.0,1,0.00,,,0.07,Rainwise IP-100,2013-04-29 14:29:00,
2013-04-29 10:34:00,63.0,53.5,27.85,WSW,247,0.0,4.0,70,0.00,,,0.07,Rainwise IP-100,2013-04-29 14:34:00,
2013-04-29 10:39:00,63.0,4.0,27.85,South,180,2.0,4.0,8,0.00,,,0.07,Rainwise IP-100,2013-04-29 14:39:00,
2013-04-29 10:44:00,64.0,50.0,27.86,SW,225,0.0,3.0,60,0.00,,,0.07,Rainwise IP-100,2013-04-29 14:44:00,
2013-04-29 10:49:00,65.0,4.0,27.86,WSW,247,0.0,0.0,8,0.00,,,0.07,Rainwise IP-100,2013-04-29 14:49:00,
2013-04-29 10:54:00,67.0,-23.0,27.85,SE,135,0.0,0.0,0,0.00,,,0.07,Rainwise IP-100,2013-04-29 14:54:00,
2013-04-29 10:59:00,66.0,65.5,27.85,West,270,0.0,3.0,98,0.00,,,0.07,Rainwise IP-100,2013-04-29 14:59:00,
2013-04-29 11:04:00,66.0,66.0,27.86,SSW,202,0.0,3.0,100,0.00,,,0.07,Rainwise IP-100,2013-04-29 15:04:00,
2013-04-29 11:09:00,66.0,64.5,27.86,SE,135,2.0,3.0,95,0.00,,,0.07,Rainwise IP-100,2013-04-29 15:09:00,
2013-04-29 11:14:00,65.0,65.0,27.85,SW,225,1.0,3.0,100,0.00,,,0.07,Rainwise IP-100,2013-04-29 15:14:00,
2013-04-29 11:19:00,65.0,63.5,27.85,WSW,247,0.0,2.0,95,0.00,,,0.07,Rainwise IP-100,2013-04-29 15:19:00,
2013-04-29 11:24:00,67.0,66.7,27.85,WSW,247,0.0,2.0,98,0.00,,,0.07,Rainwise IP-100,2013-04-29 15:24:00,
2013-04-29 11:29:00,68.0,61.5,27.85,WNW,292,2.0,2.0,79,0.00,,,0.07,Rainwise IP-100,2013-04-29 15:29:00,
2013-04-29 11:34:00,68.0,66.0,27.84,SSW,202,4.0,4.0,93,0.00,,,0.07,Rainwise IP-100,2013-04-29 15:34:00,
2013-04-29 11:39:00,68.0,60.5,27.84,West,270,2.0,4.0,77,0.00,,,0.07,Rainwise IP-100,2013-04-29 15:39:00,
2013-04-29 11:44:00,68.0,58.0,27.84,WNW,292,0.0,4.0,71,0.00,,,0.07,Rainwise IP-100,2013-04-29 15:44:00,
2013-04-29 11:49:00,68.0,63.5,27.84,SW,225,0.0,1.0,85,0.00,,,0.07,Rainwise IP-100,2013-04-29 15:49:00,
2013-04-29 11:54:00,70.0,60.5,27.84,South,180,4.0,4.0,72,0.00,,,0.07,Rainwise IP-100,2013-04-29 15:54:00,
2013-04-29 11:59:00,70.0,64.5,27.84,SSW,202,3.0,5.0,82,0.00,,,0.07,Rainwise IP-100,2013-04-29 15:59:00,
2013-04-29 12:04:00,69.0,56.5,27.83,SSW,202,2.0,5.0,65,0.00,,,0.07,Rainwise IP-100,2013-04-29 16:04:00,
2013-04-29 12:09:00,68.0,56.5,27.83,SSW,202,2.0,5.0,67,0.00,,,0.07,Rainwise IP-100,2013-04-29 16:09:00,
2013-04-29 12:14:00,68.0,58.0,27.83,SE,135,2.0,5.0,71,0.00,,,0.07,Rainwise IP-100,2013-04-29 16:14:00,
2013-04-29 12:19:00,69.0,60.5,27.83,WSW,247,0.0,4.0,75,0.00,,,0.07,Rainwise IP-100,2013-04-29 16:19:00,
2013-04-29 12:24:00,69.0,59.0,27.83,SSW,202,2.0,5.0,70,0.00,,,0.07,Rainwise IP-100,2013-04-29 16:24:00,
2013-04-29 12:29:00,70.0,59.0,27.83,SSW,202,2.0,3.0,68,0.00,,,0.07,Rainwise IP-100,2013-04-29 16:29:00,
2013-04-29 12:34:00,70.0,61.0,27.82,East,90,0.0,3.0,73,0.00,,,0.07,Rainwise IP-100,2013-04-29 16:34:00,
2013-04-29 12:39:00,71.0,58.0,27.82,WNW,292,0.0,5.0,65,0.00,,,0.07,Rainwise IP-100,2013-04-29 16:39:00,
2013-04-29 12:44:00,71.0,60.5,27.82,SE,135,0.0,3.0,70,0.00,,,0.07,Rainwise IP-100,2013-04-29 16:44:00,
2013-04-29 12:49:00,72.0,64.5,27.82,SSE,157,0.0,0.0,77,0.00,,,0.07,Rainwise IP-100,2013-04-29 16:49:00,
2013-04-29 12:54:00,73.0,60.5,27.80,SSE,157,0.0,0.0,65,0.00,,,0.07,Rainwise IP-100,2013-04-29 16:54:00,
2013-04-29 12:59:00,73.0,62.5,27.80,SE,135,0.0,0.0,70,0.00,,,0.07,Rainwise IP-100,2013-04-29 16:59:00,
2013-04-29 13:04:00,72.0,59.0,27.80,SSE,157,0.0,0.0,63,0.00,,,0.07,Rainwise IP-100,2013-04-29 17:04:00,
2013-04-29 13:09:00,71.0,55.0,27.81,SE,135,0.0,5.0,58,0.00,,,0.07,Rainwise IP-100,2013-04-29 17:09:00,
2013-04-29 13:14:00,72.0,60.0,27.81,WNW,292,0.0,5.0,66,0.00,,,0.07,Rainwise IP-100,2013-04-29 17:14:00,
2013-04-29 13:19:00,71.0,56.0,27.80,SE,135,4.0,5.0,59,0.00,,,0.07,Rainwise IP-100,2013-04-29 17:19:00,
2013-04-29 13:24:00,69.0,54.5,27.80,WNW,292,4.0,5.0,60,0.00,,,0.07,Rainwise IP-100,2013-04-29 17:24:00,
2013-04-29 13:29:00,70.0,62.5,27.80,WNW,292,0.0,5.0,77,0.00,,,0.07,Rainwise IP-100,2013-04-29 17:29:00,
2013-04-29 13:34:00,71.0,55.0,27.80,WNW,292,0.0,3.0,58,0.00,,,0.07,Rainwise IP-100,2013-04-29 17:34:00,
2013-04-29 13:39:00,73.0,60.5,27.79,ENE,67,0.0,5.0,65,0.00,,,0.07,Rainwise IP-100,2013-04-29 17:39:00,
2013-04-29 13:44:00,74.0,58.0,27.79,NNE,22,0.0,1.0,58,0.00,,,0.07,Rainwise IP-100,2013-04-29 17:44:00,
2013-04-29 13:49:00,75.0,60.0,27.78,NNE,22,0.0,0.0,59,0.00,,,0.07,Rainwise IP-100,2013-04-29 17:49:00,
2013-04-29 13:54:00,72.0,61.0,27.78,East,90,0.0,4.0,68,0.00,,,0.07,Rainwise IP-100,2013-04-29 17:54:00,
2013-04-29 13:59:00,72.0,62.0,27.79,ESE,112,0.0,3.0,71,0.00,,,0.07,Rainwise IP-100,2013-04-29 17:59:00,
2013-04-29 14:04:00,71.0,63.0,27.79,North,360,0.0,3.0,76,0.00,,,0.07,Rainwise IP-100,2013-04-29 18:04:00,
2013-04-29 14:09:00,70.0,63.0,27.80,NNE,22,0.0,3.0,79,0.00,,,0.07,Rainwise IP-100,2013-04-29 18:09:00,
2013-04-29 14:14:00,70.0,63.5,27.80,NNE,22,0.0,4.0,80,0.00,,,0.07,Rainwise IP-100,2013-04-29 18:14:00,
2013-04-29 14:19:00,69.0,61.5,27.80,NNE,22,0.0,5.0,78,0.00,,,0.07,Rainwise IP-100,2013-04-29 18:19:00,
2013-04-29 14:24:00,68.0,62.5,27.80,SSW,202,0.0,3.0,83,0.00,,,0.07,Rainwise IP-100,2013-04-29 18:24:00,
2013-04-29 14:29:00,67.0,60.5,27.80,SE,135,3.0,6.0,79,0.00,,,0.07,Rainwise IP-100,2013-04-29 18:29:00,
2013-04-29 14:34:00,67.0,62.0,27.80,SSE,157,0.0,6.0,83,0.00,,,0.07,Rainwise IP-100,2013-04-29 18:34:00,
2013-04-29 14:39:00,66.0,60.0,27.80,SE,135,7.0,7.0,81,0.00,,,0.07,Rainwise IP-100,2013-04-29 18:39:00,
2013-04-29 14:44:00,66.0,62.0,27.80,NNE,22,3.0,7.0,87,0.00,,,0.07,Rainwise IP-100,2013-04-29 18:44:00,
2013-04-29 14:49:00,66.0,61.0,27.80,SE,135,3.0,5.0,85,0.00,,,0.07,Rainwise IP-100,2013-04-29 18:49:00,
2013-04-29 14:54:00,66.0,62.0,27.80,SW,225,0.0,7.0,88,0.00,,,0.07,Rainwise IP-100,2013-04-29 18:54:00,
2013-04-29 14:59:00,67.0,61.0,27.80,South,180,3.0,5.0,81,0.00,,,0.07,Rainwise IP-100,2013-04-29 18:59:00,
2013-04-29 15:04:00,66.0,60.5,27.78,SSE,157,2.0,7.0,83,0.00,,,0.07,Rainwise IP-100,2013-04-29 19:04:00,
2013-04-29 15:09:00,67.0,61.0,27.78,SSE,157,0.0,5.0,80,0.00,,,0.07,Rainwise IP-100,2013-04-29 19:09:00,
2013-04-29 15:14:00,67.0,61.0,27.78,South,180,0.0,6.0,80,0.00,,,0.07,Rainwise IP-100,2013-04-29 19:14:00,
2013-04-29 15:19:00,67.0,59.5,27.78,SSE,157,0.0,5.0,76,0.00,,,0.07,Rainwise IP-100,2013-04-29 19:19:00,
2013-04-29 15:24:00,66.0,58.0,27.78,SSW,202,0.0,9.0,77,0.00,,,0.07,Rainwise IP-100,2013-04-29 19:24:00,
2013-04-29 15:29:00,66.0,59.5,27.78,SSE,157,2.0,7.0,80,0.00,,,0.07,Rainwise IP-100,2013-04-29 19:29:00,
2013-04-29 15:34:00,66.0,59.5,27.79,WSW,247,0.0,6.0,80,0.00,,,0.07,Rainwise IP-100,2013-04-29 19:34:00,
2013-04-29 15:39:00,67.0,60.5,27.77,SSW,202,0.0,5.0,79,0.00,,,0.07,Rainwise IP-100,2013-04-29 19:39:00,
2013-04-29 15:44:00,67.0,60.0,27.77,ESE,112,1.0,4.0,77,0.00,,,0.07,Rainwise IP-100,2013-04-29 19:44:00,
2013-04-29 15:49:00,67.0,59.0,27.77,SE,135,2.0,4.0,75,0.00,,,0.07,Rainwise IP-100,2013-04-29 19:49:00,
2013-04-29 15:54:00,67.0,61.0,27.77,SSW,202,0.0,6.0,80,0.00,,,0.07,Rainwise IP-100,2013-04-29 19:54:00,
2013-04-29 15:59:00,68.0,61.0,27.76,South,180,0.0,7.0,78,0.00,,,0.07,Rainwise IP-100,2013-04-29 19:59:00,
2013-04-29 16:04:00,67.0,59.0,27.76,SSE,157,2.0,5.0,75,0.00,,,0.07,Rainwise IP-100,2013-04-29 20:04:00,
2013-04-29 16:09:00,67.0,60.5,27.77,East,90,0.0,7.0,79,0.00,,,0.07,Rainwise IP-100,2013-04-29 20:09:00,
2013-04-29 16:14:00,66.0,58.0,27.77,SSW,202,2.0,4.0,76,0.00,,,0.07,Rainwise IP-100,2013-04-29 20:14:00,
2013-04-29 16:19:00,67.0,60.0,27.76,ESE,112,2.0,3.0,78,0.00,,,0.07,Rainwise IP-100,2013-04-29 20:19:00,
2013-04-29 16:24:00,67.0,59.5,27.76,NNE,22,0.0,5.0,76,0.00,,,0.07,Rainwise IP-100,2013-04-29 20:24:00,
2013-04-29 16:29:00,69.0,60.0,27.76,ESE,112,0.0,5.0,73,0.00,,,0.07,Rainwise IP-100,2013-04-29 20:29:00,
2013-04-29 16:34:00,70.0,61.0,27.76,ESE,112,0.0,6.0,73,0.00,,,0.07,Rainwise IP-100,2013-04-29 20:34:00,
2013-04-29 16:39:00,70.0,60.5,27.76,SSE,157,0.0,6.0,71,0.00,,,0.07,Rainwise IP-100,2013-04-29 20:39:00,
2013-04-29 16:44:00,71.0,61.0,27.76,NNE,22,0.0,5.0,71,0.00,,,0.07,Rainwise IP-100,2013-04-29 20:44:00,
2013-04-29 16:49:00,71.0,60.5,27.76,East,90,0.0,6.0,70,0.00,,,0.07,Rainwise IP-100,2013-04-29 20:49:00,
2013-04-29 16:54:00,70.0,59.0,27.76,South,180,5.0,7.0,68,0.00,,,0.07,Rainwise IP-100,2013-04-29 20:54:00,
2013-04-29 16:59:00,69.0,60.5,27.76,ESE,112,0.0,6.0,74,0.00,,,0.07,Rainwise IP-100,2013-04-29 20:59:00,
2013-04-29 17:04:00,68.0,60.0,27.76,North,360,0.0,5.0,76,0.00,,,0.07,Rainwise IP-100,2013-04-29 21:04:00,
2013-04-29 17:09:00,68.0,60.0,27.76,NE,45,0.0,6.0,75,0.00,,,0.07,Rainwise IP-100,2013-04-29 21:09:00,
2013-04-29 17:14:00,67.0,59.0,27.76,SE,135,0.0,7.0,74,0.00,,,0.07,Rainwise IP-100,2013-04-29 21:14:00,
2013-04-29 17:19:00,67.0,59.0,27.76,SSE,157,0.0,7.0,74,0.00,,,0.07,Rainwise IP-100,2013-04-29 21:19:00,
2013-04-29 17:24:00,67.0,60.0,27.76,SE,135,3.0,4.0,77,0.00,,,0.07,Rainwise IP-100,2013-04-29 21:24:00,
2013-04-29 17:29:00,67.0,60.0,27.76,ESE,112,0.0,8.0,77,0.00,,,0.07,Rainwise IP-100,2013-04-29 21:29:00,
2013-04-29 17:34:00,67.0,60.0,27.76,ESE,112,1.0,8.0,77,0.00,,,0.07,Rainwise IP-100,2013-04-29 21:34:00,
2013-04-29 17:39:00,67.0,59.5,27.76,ESE,112,5.0,5.0,76,0.00,,,0.07,Rainwise IP-100,2013-04-29 21:39:00,
2013-04-29 17:44:00,66.0,59.5,27.76,ESE,112,0.0,5.0,79,0.00,,,0.07,Rainwise IP-100,2013-04-29 21:44:00,
2013-04-29 17:49:00,66.0,58.0,27.76,SE,135,4.0,6.0,77,0.00,,,0.07,Rainwise IP-100,2013-04-29 21:49:00,
2013-04-29 17:54:00,66.0,58.0,27.76,SSW,202,3.0,6.0,77,0.00,,,0.07,Rainwise IP-100,2013-04-29 21:54:00,
2013-04-29 17:59:00,66.0,59.5,27.76,ESE,112,3.0,5.0,79,0.00,,,0.07,Rainwise IP-100,2013-04-29 21:59:00,
2013-04-29 18:04:00,66.0,60.0,27.76,SSE,157,0.0,5.0,81,0.00,,,0.07,Rainwise IP-100,2013-04-29 22:04:00,
2013-04-29 18:09:00,66.0,59.5,27.76,NNW,337,0.0,3.0,80,0.00,,,0.07,Rainwise IP-100,2013-04-29 22:09:00,
2013-04-29 18:14:00,66.0,60.5,27.76,SSE,157,0.0,2.0,83,0.00,,,0.07,Rainwise IP-100,2013-04-29 22:14:00,
2013-04-29 18:19:00,66.0,60.5,27.76,ESE,112,0.0,2.0,83,0.00,,,0.07,Rainwise IP-100,2013-04-29 22:19:00,
2013-04-29 18:24:00,66.0,60.5,27.76,SSE,157,0.0,4.0,83,0.00,,,0.07,Rainwise IP-100,2013-04-29 22:24:00,
2013-04-29 18:29:00,66.0,60.0,27.76,SE,135,1.0,5.0,81,0.00,,,0.07,Rainwise IP-100,2013-04-29 22:29:00,
2013-04-29 18:34:00,66.0,60.0,27.76,SSW,202,0.0,5.0,82,0.00,,,0.07,Rainwise IP-100,2013-04-29 22:34:00,
2013-04-29 18:39:00,66.0,60.5,27.76,SE,135,0.0,1.0,83,0.00,,,0.07,Rainwise IP-100,2013-04-29 22:39:00,
2013-04-29 18:44:00,65.0,59.5,27.76,East,90,0.0,3.0,82,0.00,,,0.07,Rainwise IP-100,2013-04-29 22:44:00,
2013-04-29 18:49:00,66.0,60.0,27.76,SSE,157,0.0,3.0,81,0.00,,,0.07,Rainwise IP-100,2013-04-29 22:49:00,
2013-04-29 18:54:00,65.0,59.5,27.76,ESE,112,0.0,2.0,83,0.00,,,0.07,Rainwise IP-100,2013-04-29 22:54:00,
2013-04-29 18:59:00,66.0,60.0,27.76,South,180,0.0,3.0,82,0.00,,,0.07,Rainwise IP-100,2013-04-29 22:59:00,
2013-04-29 19:04:00,65.0,59.5,27.76,SSE,157,0.0,4.0,83,0.00,,,0.07,Rainwise IP-100,2013-04-29 23:04:00,
2013-04-29 19:09:00,65.0,59.0,27.76,SE,135,1.0,3.0,81,0.00,,,0.07,Rainwise IP-100,2013-04-29 23:09:00,
2013-04-29 19:14:00,65.0,59.5,27.76,South,180,4.0,5.0,82,0.00,,,0.07,Rainwise IP-100,2013-04-29 23:14:00,
2013-04-29 19:19:00,65.0,59.5,27.76,SSW,202,0.0,4.0,83,0.00,,,0.07,Rainwise IP-100,2013-04-29 23:19:00,
2013-04-29 19:24:00,65.0,59.5,27.76,SE,135,0.0,4.0,83,0.00,,,0.07,Rainwise IP-100,2013-04-29 23:24:00,
2013-04-29 19:29:00,65.0,60.5,27.76,SE,135,1.0,3.0,85,0.00,,,0.07,Rainwise IP-100,2013-04-29 23:29:00,
2013-04-29 19:34:00,64.0,60.0,27.76,NNE,22,0.0,2.0,86,0.00,,,0.07,Rainwise IP-100,2013-04-29 23:34:00,
2013-04-29 19:39:00,64.0,60.0,27.77,ESE,112,0.0,3.0,86,0.00,,,0.07,Rainwise IP-100,2013-04-29 23:39:00,
2013-04-29 19:44:00,63.0,60.0,27.77,East,90,0.0,0.0,89,0.00,,,0.07,Rainwise IP-100,2013-04-29 23:44:00,
2013-04-29 19:49:00,63.0,60.5,27.78,North,360,0.0,3.0,91,0.00,,,0.07,Rainwise IP-100,2013-04-29 23:49:00,
2013-04-29 19:54:00,63.0,61.0,27.78,North,360,0.0,2.0,93,0.00,,,0.07,Rainwise IP-100,2013-04-29 23:54:00,
2013-04-29 19:59:00,63.0,62.0,27.78,North,360,0.0,2.0,96,0.00,,,0.07,Rainwise IP-100,2013-04-29 23:59:00,
2013-04-29 20:04:00,62.0,61.5,27.78,NNE,22,0.0,2.0,98,0.00,,,0.07,Rainwise IP-100,2013-04-30 00:04:00,
2013-04-29 20:09:00,62.0,61.5,27.79,NNE,22,0.0,2.0,98,0.00,,,0.07,Rainwise IP-100,2013-04-30 00:09:00,
2013-04-29 20:14:00,62.0,62.0,27.79,NNE,22,0.0,0.0,100,0.00,,,0.07,Rainwise IP-100,2013-04-30 00:14:00,
2013-04-29 20:19:00,62.0,62.0,27.79,NNE,22,0.0,0.0,100,0.00,,,0.07,Rainwise IP-100,2013-04-30 00:19:00,
2013-04-29 20:24:00,61.0,61.0,27.79,NNE,22,0.0,0.0,100,0.00,,,0.07,Rainwise IP-100,2013-04-30 00:24:00,
2013-04-29 20:29:00,61.0,61.0,27.80,NNE,22,0.0,0.0,100,0.00,,,0.07,Rainwise IP-100,2013-04-30 00:29:00,
2013-04-29 20:34:00,61.0,61.0,27.80,NNE,22,0.0,3.0,100,0.00,,,0.07,Rainwise IP-100,2013-04-30 00:34:00,
2013-04-29 20:39:00,61.0,61.0,27.80,NNW,337,0.0,3.0,100,0.00,,,0.07,Rainwise IP-100,2013-04-30 00:39:00,
2013-04-29 20:44:00,61.0,61.0,27.80,North,360,0.0,0.0,100,0.00,,,0.07,Rainwise IP-100,2013-04-30 00:44:00,
2013-04-29 20:49:00,61.0,61.0,27.81,North,360,0.0,0.0,100,0.00,,,0.07,Rainwise IP-100,2013-04-30 00:49:00,
2013-04-29 20:54:00,61.0,61.0,27.81,North,360,0.0,0.0,100,0.00,,,0.07,Rainwise IP-100,2013-04-30 00:54:00,
2013-04-29 20:59:00,61.0,61.0,27.81,North,360,0.0,0.0,100,0.00,,,0.07,Rainwise IP-100,2013-04-30 00:59:00,
2013-04-29 21:04:00,60.0,60.0,27.81,North,360,0.0,0.0,100,0.00,,,0.07,Rainwise IP-100,2013-04-30 01:04:00,
2013-04-29 21:09:00,61.0,61.0,27.81,North,360,0.0,0.0,100,0.00,,,0.07,Rainwise IP-100,2013-04-30 01:09:00,
2013-04-29 21:14:00,60.0,60.0,27.81,North,360,0.0,0.0,100,0.00,,,0.07,Rainwise IP-100,2013-04-30 01:14:00,
2013-04-29 21:19:00,61.0,61.0,27.82,North,360,0.0,0.0,100,0.00,,,0.07,Rainwise IP-100,2013-04-30 01:19:00,
2013-04-29 21:24:00,60.0,60.0,27.82,North,360,0.0,0.0,100,0.00,,,0.07,Rainwise IP-100,2013-04-30 01:24:00,
2013-04-29 21:29:00,61.0,61.0,27.82,North,360,0.0,0.0,100,0.00,,,0.07,Rainwise IP-100,2013-04-30 01:29:00,
2013-04-29 21:34:00,60.0,60.0,27.82,North,360,0.0,0.0,100,0.00,,,0.07,Rainwise IP-100,2013-04-30 01:34:00,
2013-04-29 21:39:00,60.0,60.0,27.82,North,360,0.0,0.0,100,0.00,,,0.07,Rainwise IP-100,2013-04-30 01:39:00,
2013-04-29 21:44:00,60.0,60.0,27.82,North,360,0.0,0.0,100,0.00,,,0.07,Rainwise IP-100,2013-04-30 01:44:00,
2013-04-29 21:49:00,60.0,60.0,27.83,North,360,0.0,0.0,100,0.00,,,0.07,Rainwise IP-100,2013-04-30 01:49:00,
2013-04-29 21:54:00,60.0,60.0,27.83,North,360,0.0,0.0,100,0.00,,,0.07,Rainwise IP-100,2013-04-30 01:54:00,
2013-04-29 21:59:00,60.0,60.0,27.83,North,360,0.0,0.0,100,0.00,,,0.07,Rainwise IP-100,2013-04-30 01:59:00,
2013-04-29 22:04:00,60.0,60.0,27.83,North,360,0.0,0.0,100,0.00,,,0.07,Rainwise IP-100,2013-04-30 02:04:00,
2013-04-29 22:09:00,61.0,61.0,27.83,North,360,0.0,0.0,100,0.00,,,0.07,Rainwise IP-100,2013-04-30 02:09:00,
2013-04-29 22:14:00,60.0,60.0,27.83,North,360,0.0,0.0,100,0.00,,,0.07,Rainwise IP-100,2013-04-30 02:14:00,
2013-04-29 22:19:00,61.0,61.0,27.84,SW,225,0.0,0.0,100,0.00,,,0.07,Rainwise IP-100,2013-04-30 02:19:00,
2013-04-29 22:24:00,60.0,60.0,27.84,SW,225,0.0,0.0,100,0.00,,,0.07,Rainwise IP-100,2013-04-30 02:24:00,
2013-04-29 22:29:00,60.0,60.0,27.84,SW,225,0.0,0.0,100,0.00,,,0.07,Rainwise IP-100,2013-04-30 02:29:00,
2013-04-29 22:34:00,60.0,60.0,27.84,SW,225,0.0,0.0,100,0.00,,,0.07,Rainwise IP-100,2013-04-30 02:34:00,
2013-04-29 22:39:00,60.0,60.0,27.84,SW,225,0.0,0.0,100,0.00,,,0.07,Rainwise IP-100,2013-04-30 02:39:00,
2013-04-29 22:44:00,59.0,59.0,27.84,SW,225,0.0,0.0,100,0.00,,,0.07,Rainwise IP-100,2013-04-30 02:44:00,
2013-04-29 22:49:00,59.0,59.0,27.85,SW,225,0.0,0.0,100,0.00,,,0.07,Rainwise IP-100,2013-04-30 02:49:00,
2013-04-29 22:54:00,59.0,59.0,27.85,SW,225,0.0,0.0,100,0.00,,,0.07,Rainwise IP-100,2013-04-30 02:54:00,
2013-04-29 22:59:00,59.0,59.0,27.84,SW,225,0.0,0.0,100,0.00,,,0.07,Rainwise IP-100,2013-04-30 02:59:00,
2013-04-29 23:04:00,58.0,58.0,27.84,SW,225,0.0,0.0,100,0.00,,,0.07,Rainwise IP-100,2013-04-30 03:04:00,
2013-04-29 23:09:00,59.0,59.0,27.85,SW,225,0.0,0.0,100,0.00,,,0.07,Rainwise IP-100,2013-04-30 03:09:00,
2013-04-29 23:14:00,58.0,58.0,27.85,NNW,337,0.0,0.0,100,0.00,,,0.07,Rainwise IP-100,2013-04-30 03:14:00,
2013-04-29 23:19:00,58.0,58.0,27.84,WSW,247,0.0,0.0,100,0.00,,,0.07,Rainwise IP-100,2013-04-30 03:19:00,
2013-04-29 23:24:00,58.0,58.0,27.84,WSW,247,0.0,0.0,100,0.00,,,0.07,Rainwise IP-100,2013-04-30 03:24:00,
2013-04-29 23:29:00,58.0,58.0,27.84,WSW,247,0.0,0.0,100,0.00,,,0.07,Rainwise IP-100,2013-04-30 03:29:00,
2013-04-29 23:34:00,57.0,57.0,27.84,WSW,247,0.0,0.0,100,0.00,,,0.07,Rainwise IP-100,2013-04-30 03:34:00,
2013-04-29 23:39:00,57.0,57.0,27.84,WSW,247,0.0,0.0,100,0.00,,,0.07,Rainwise IP-100,2013-04-30 03:39:00,
2013-04-29 23:44:00,57.0,57.0,27.84,WSW,247,0.0,0.0,100,0.00,,,0.07,Rainwise IP-100,2013-04-30 03:44:00,
2013-04-29 23:49:00,56.0,56.0,27.84,WSW,247,0.0,0.0,100,0.00,,,0.07,Rainwise IP-100,2013-04-30 03:49:00,
2013-04-29 23:54:00,56.0,56.0,27.84,WSW,247,0.0,0.0,100,0.00,,,0.07,Rainwise IP-100,2013-04-30 03:54:00,
2013-04-29 23:59:00,56.0,56.0,27.84,WSW,247,0.0,0.0,100,0.00,,,0.07,Rainwise IP-100,2013-04-30 03:59:00,